Location: Nashville
(36.1660°N, 86.7840°W)
Time: 06:20:10
(UTC-05:00)

AAUSAT CUBESAT 2 - Visible Passes

Search period start: 22 May 2022 00:00
Search period end: 01 June 2022 00:00
Orbit: 568 x 582 km, 97.5° (Epoch: 21 May)

Date Brightness Start Highest point End Pass type
(mag) Time Alt. Az. Time Alt. Az. Time Alt. Az.
22 May ? 04:37:43 10° ENE 04:40:01 15° E 04:42:18 10° SE visible
23 May ? 04:40:57 10° NE 04:43:31 16° E 04:46:03 10° SE visible
24 May ? 04:44:12 10° NE 04:47:00 18° E 04:49:46 10° SE visible
25 May ? 04:47:28 10° NE 04:50:27 19° E 04:53:25 10° SE visible
26 May ? 04:50:45 10° NE 04:53:54 21° E 04:57:01 10° SE visible
27 May ? 04:54:01 10° NE 04:57:19 23° E 05:00:35 10° SSE visible
28 May ? 04:57:17 10° NE 05:00:43 26° E 05:04:07 10° SSE visible
29 May ? 05:00:34 10° NE 05:04:06 28° E 05:07:37 10° SSE visible
